Other Public Products
Issued by NWS Grand Forks, ND

Home | Current Version | Previous Version | Graphics & Text | Print | Product List | Glossary On
Versions: 1 2 3 4 5 6 7 8 9 10 11 12 13 14 15 16 17 18 19 20 21 22 23 24 25 26 27 28 29 30 31 32 33 34 35 36 37 38 39 40 41 42 43 44 45 46 47 48 49 50
000
FPUS83 KFGF 012210
OPUFGF
PRAIRIE TO PINES WEATHER ROUNDUP
NATIONAL WEATHER SERVICE EASTERN NORTH DAKOTA/GRAND FORKS ND
400 PM CST SUN FEB 01 2015

 **SATELLITE DATA USED TO AUGMENT SKY COVER AT AUTOMATED STATIONS**
 *****  WEATHER ACROSS EASTERN NORTH DAKOTA  *****

CITY           SKY/WX    TMP DP  RH WIND       PRES   REMARKS
GRAND FORKS    SUNNY      2 -12  52 N6        30.45F WCI  -9
GRAND FORKS AF SUNNY      3 -17  39 VRB3      30.44F
GRAND CITY NWS   N/A      0 N/A N/A VRB2        N/A
BUXTON         NOT AVBL
DEVILS LAKE    SUNNY      1 -13  51 W10       30.36F WCI -14
FARGO          SUNNY      5 -13  43 N12       30.43F WCI -11
WAHPETON ARPT  FAIR       9  -9  43 N15       30.40F WCI  -8
$$

 *****  WEATHER ACROSS CENTRAL AND WESTERN NORTH DAKOTA  *****

CITY           SKY/WX    TMP DP  RH WIND       PRES   REMARKS
JAMESTOWN      SUNNY      4 -12  48 N5        30.36F WCI  -5
BISMARCK       SUNNY      4 -12  48 W8        30.39F WCI  -9
MINOT          SUNNY      5 -10  50 SW12      30.32F WCI -11
MINOT AFB      SUNNY      6  -7  54 SW8       30.31F WCI  -7
GARRISON         N/A      3 -11  52 W9        30.32F WCI -12
WILLISTON      SUNNY      7  -7  52 SW9       30.28F WCI  -7
DICKINSON      SUNNY      6  -5  60 SW6       30.23F WCI  -4
HETTINGER      SUNNY      7   0  73 W6        30.27F WCI  -3
$$

 *****  OTHER OBSERVATIONS NORTHEAST NORTH DAKOTA  *****

CITY           SKY/WX    TMP DP  RH WIND       PRES   REMARKS
WALHALLA         N/A      0 -15  50 W5        30.42F WCI -10
LANGDON        NOT AVBL
CAVALIER       FAIR       0 -13  55 W8        30.43F WCI -15
GRAFTON        NOT AVBL
CANDO          FAIR       0 -13  55 W10       30.37F WCI -17
FORT TOTTEN    NOT AVBL
ROLLA          FAIR      -2 -17  50 SW13      30.31F WCI -21
RUGBY          FAIR       0 N/A N/A W7        30.36F WCI -13
 ***** THE ABOVE OBSERVATIONS ARE NON NWS ARE NOT QUALITY
        CONTROLLED AND MAY MIS-REPORT RAIN FOR SNOW...
$$

 *****  OTHER OBSERVATIONS SOUTHEAST NORTH DAKOTA *****

CITY           SKY/WX    TMP DP  RH WIND       PRES   REMARKS
COOPERSTOWN    NOT AVBL
VALLEY CITY    FAIR       5 -11  47 N9        30.38F WCI  -9
OAKES            N/A      5  -9  51 NW13      30.39S WCI -12
GWINNER        CLEAR      9  -9  43 N10       30.40F WCI  -6
BUFFALO        NOT AVBL
WYNDMERE         N/A      7 -11  43 N12         N/A  WCI  -9
 ***** THE ABOVE OBSERVATIONS ARE NON NWS ARE NOT QUALITY
       CONTROLLED AND MAY MIS-REPORT RAIN FOR SNOW...
$$

  *****  WEATHER ACROSS NORTHERN MINNESOTA  *****

CITY           SKY/WX    TMP DP  RH WIND       PRES   REMARKS
FLAG ISLAND    CLEAR     -8 -15  71 S8        30.38R WCI -23
WARROAD        CLEAR     -2 -15  55 SW6       30.38F WCI -14
ROSEAU         SUNNY      0 -15  50 W5        30.39F WCI -10
HALLOCK        SUNNY     -2 -15  55 W3        30.44F
THF RVR FALLS  SUNNY     -2 -11  65 CALM      30.39F
HALSTAD          N/A      3 -13  48 N9          N/A  WCI -12
FOSSTON        SUNNY      3 -11  51 N7        30.38F WCI  -9
BAUDETTE       CLEAR     -5 -19  51 NW3       30.36F
WASKISH        SUNNY      1 -15  46 CALM      30.35F
CROOKSTON      SUNNY      0 -11  60 N6        30.45F WCI -12
$$
  *****  WEATHER ACROSS CENTRAL AND WEST MINNESOTA  *****

CITY           SKY/WX    TMP DP  RH WIND       PRES   REMARKS
BEMIDJI        SUNNY      1 -14  50 N9        30.33F WCI -15
PARK RAPIDS    SUNNY      7 -14  37 N12       30.30F WCI  -8
WADENA         SUNNY      9 -11  40 N9        30.30F WCI  -5
DETROIT LAKES  SUNNY      5  -8  56 N12       30.35S WCI -11
MOORHEAD       SUNNY      5 -13  43 N15       30.42F WCI -13
FERGUS FALLS   SUNNY      7 -11  43 N14G21    30.40R WCI -10
ELBOW LAKE     FAIR       8  -8  47 N13       30.33S WCI  -8
MORRIS MN      SUNNY     12  -2  52 NW20      30.31S WCI  -6
STAPLES        SUNNY      7 -15  36 N9        30.30F WCI  -7
WHEATON        SUNNY      5  -9  51 N16G22    30.40S WCI -14
$$
  *****  WEATHER ELSEWHERE ACROSS MINNESOTA  *****

CITY           SKY/WX    TMP DP  RH WIND       PRES   REMARKS
DULUTH         PTCLDY     8 -13  37 N12       30.24S WCI  -7
INTRNTL FALLS  CLEAR      0 -15  49 N6        30.34F WCI -12
ELY            CLEAR      1 -17  42 NW6       30.27F WCI -10
CLOQUET        CLEAR      9 -15  33 N10       30.26S WCI  -6
BRAINERD       SUNNY      9 -13  36 N12       30.29S WCI  -6
HIBBING        CLEAR      5 -15  39 N8        30.29F WCI  -8
ALEXANDRIA     SUNNY     11  -9  40 N14       30.28S WCI  -5
SAINT CLOUD    SUNNY     13  -9  37 N10       30.26S WCI   0
MINNEAPOLIS    PTSUNNY   17   2  51 N16       30.21S WCI   2
$$

  *****  WEATHER ACROSS SOUTH DAKOTA  *****

CITY           SKY/WX    TMP DP  RH WIND       PRES   REMARKS
SIOUX FALLS    MOSUNNY    9   1  70 N17       30.26S WCI  -9
BROOKINGS      NOT AVBL
WATERTOWN      MOSUNNY    7  -2  66 N16       30.28S WCI -11
HURON          MOSUNNY    5  -6  60 N16       30.38F WCI -14
SISSETON         N/A      7  -9  48 N18       30.37S WCI -12
ABERDEEN       SUNNY      7  -8  50 N14       30.40F WCI -10
MITCHELL       MOSUNNY    5  -3  69 N22       30.37S WCI -16
PIERRE         SUNNY      6  -6  57 NW12      30.38F WCI  -9
MOBRIDGE       SUNNY      7 -11  43 N6        30.36F WCI  -3
RAPID CITY     MOSUNNY   13   7  77 NE5       30.26F WCI   5
$$

  *****  SOME WEATHER IN NEARBY STATES *****

CITY           SKY/WX    TMP DP  RH WIND       PRES   REMARKS
GLASGOW MT     SUNNY     10   2  69 SE13      30.16F WCI  -5
GREAT FALLS MT CLOUDY    29  20  69 S17       29.93F WCI  17
CHEYENNE WY    MOSUNNY   24  10  55 N13       30.08S WCI  12
SCOTTSBLUFF NE MOSUNNY   22  11  62 NE6       30.22F WCI  14
OMAHA NE       CLOUDY    14   9  80 N31G43    30.15R BLWGSNOWWCI  -7
DES MOINES IA  SNOW      19  13  77 N23G37    30.01R VSB 1/2 WCI   2
DAVENPORT IA   HVY SNOW  18  14  84 N32G38    29.83R VSB 1/4 WCI  -2
CHICAGO IL     SNOW      22  20  92 NE24G35   29.77R VSB 1/4 WCI   5
EAU CLAIRE WI  CLOUDY    15  -1  49 NE10      30.15S WCI   2
LA CROSSE WI   LGT SNOW  16   7  67 N10G23    30.11S WCI   4
$$

  *****  SOME NATIONAL WEATHER *****

CITY           SKY/WX    TMP DP  RH WIND       PRES   REMARKS
LA GUARDIA NY  CLOUDY    35  20  54 W6        30.13F
RALEIGH NC     CLOUDY    53  25  33 S8        30.08F
ATLANTA GA     RAIN      53  50  89 S12       29.95F FOG
NEW ORLEANS LA PTSUNNY   72  58  61 SW18G25   29.90S
OKLAHOMA CITY  MOSUNNY   39  21  48 N28G38    30.11R
ALBUQUERQUE NM MOSUNNY   49  29  46 VRB3      30.10F
SALT LAKE CITY PTSUNNY   48  29  47 W6        30.18F
LOS ANGELES CA PTSUNNY   67  52  58 W9        30.06F
BOISE ID       CLOUDY    40  31  70 E6        30.13F
SEATTLE WA     CLOUDY    45  43  93 S7        30.04S
$$

*** WEATHER ACROSS MANITOBA...SASKATCHEWAN AND ONTARIO ***
                ***ONTARIO***

CITY           SKY/WX    TMP DP  RH WIND       PRES   REMARKS
GERALDTON      PTCLDY    -6 -17  59 W3        30.24F
THUNDER BAY    PTCLDY     3 -15  43 NW8       30.32F WCI -10
SIOUX LOOKOUT  PTCLDY    -8 -18  59 W6        30.30F WCI -21
TORONTO        FLURRIES  12   1  62 E12G17    30.13F WCI  -2
BIG TROUT LK   MOCLDY   -11 -20  64 W7        30.19F WCI -26
PICKLE LAKE    CLEAR     -6 -17  59 W9        30.22F WCI -22
DRYDEN         CLEAR     -4 -17  54 W7        30.30F WCI -18
KENORA         CLEAR     -6 -17  59 W7        30.34F WCI -20
$$
                *** MANITOBA***

CITY           SKY/WX    TMP DP  RH WIND       PRES   REMARKS
BRANDON        MOSUNNY   -4 -15  59 W7        30.34F WCI -18
DAUPHIN        SUNNY     -2 -13  60 W9        30.31F WCI -18
ISLAND LAKE    NOT AVBL
PILOT MOUND      N/A     -4 -15  59 SW8         N/A  WCI -19
THE PAS        MOCLDY    -2 -11  65 SW7       30.20F WCI -16
THOMPSON       CRYSTALS  -9 -20  59 SW9       30.16F WCI -27
WINNIPEG       NOT AVBL
LYNN LAKE      PTCLDY    -9 -17  70 SW5       30.05F WCI -21
CHURCHILL      CRYSTALS -20 -27  69 SW6       30.11F WCI -36
GILLAM         CLOUDY   -15 -24  64 W12       30.15F WCI -36
$$
                ***SASKATCHEWAN***

CITY           SKY/WX    TMP DP  RH WIND       PRES   REMARKS
ESTEVAN        MOSUNNY    9  -2  61 SW12      30.25F WCI  -6
KINDERSLEY     PTSUNNY    9   1  72 SE8       30.02F WCI  -4
LLOYDMINSTER   MOSUNNY    9   1  72 W8        30.03F WCI  -4
PRINCE ALBERT  FLURRIES   5  -2  72 SW8       30.13F WCI  -8
REGINA         CLOUDY     3  -4  72 SE13      30.18F WCI -14
YORKTON        PTSUNNY    0 -11  60 S12       30.21F WCI -18



USA.gov is the U.S. government's official web portal to all federal, state and local government web resources and services.